Regional Weather Roundup
Issued by NWS Burlington, VT

Home | Current Version | Previous Version | Text Only | Print | Product List | Glossary On
Versions: 1 2 3 4 5 6 7 8 9 10 11 12 13 14 15 16 17 18 19 20 21 22 23 24 25 26 27 28 29 30 31 32 33 34 35 36 37 38 39 40 41 42 43 44 45 46 47 48 49 50
000
ASUS41 KBTV 211330
RWRBTV
VERMONT REGIONAL WEATHER ROUNDUP
NATIONAL WEATHER SERVICE BURLINGTON VT
900 AM EDT TUE OCT 21 2014

NOTE: "FAIR" INDICATES FEW OR NO CLOUDS BELOW 12,000 FEET WITH NO
SIGNIFICANT WEATHER AND/OR OBSTRUCTIONS TO VISIBILITY.

* THESE REPORTS ARE NOT UNDER NWS QUALITY CONTROL AND/OR DO NOT
  REPORT WEATHER SUCH AS PRECIPITATION AND FOG.

VTZ001>019-211400-
_____VERMONT_____


CITY           SKY/WX    TMP DP  RH WIND       PRES   REMARKS
BURLINGTON     CLOUDY    46  42  86 NE5       29.97R
MONTPELIER     LGT RAIN  41  40  96 CALM      30.01R
MORRISVILLE    LGT RAIN  42  40  92 CALM      30.00R
ST. JOHNSBURY*   N/A     40  38  93 MISG      29.99R
MIDDLEBURY*    DRIZZLE   46  46 100 N3        29.95R
RUTLAND*       CLOUDY    46  41  81 S8        29.95R
SPRINGFIELD    CLOUDY    45  43  93 CALM      29.99R FOG
HIGHGATE*      DRIZZLE   44  42  93 CALM      29.98R
NEWPORT*       DRIZZLE  N/A N/A N/A CALM      30.00S
BENNINGTON     LGT RAIN  50  43  77 CALM      29.92S

_____LAKE CHAMPLAIN_____


CITY           SKY/WX    TMP DP  RH WIND       PRES   REMARKS
BURTON ISLAND*   N/A     46  43  87 NE5         N/A
COLCHESTER RF*   N/A     48  45  87 SE1         N/A
DIAMOND ISL*     N/A     48  43  81 NW1         N/A

$$

NYZ007-026>031-035-052-083-211400-
_____NORTHERN NEW YORK_____


CITY           SKY/WX    TMP DP  RH WIND       PRES   REMARKS
PLATTSBURGH    LGT RAIN  45  44  97 NW5       29.97R FOG
SARANAC LAKE   LGT RAIN  41  40  96 NE8       29.90R
MASSENA        CLOUDY    45  42  89 E12       29.96R
OGDENSBURG*    CLOUDY    45  45 100 E8        29.92R FOG
POTSDAM*       LGT RAIN  43  43 100 NE8       29.93R
WATERTOWN      CLOUDY    51  43  74 E5        29.86R
FT DRUM        CLOUDY    47  44  89 SE13      29.87R
ALBANY         LGT RAIN  50  47  89 N3        29.92R FOG
GLENS FALLS    CLOUDY    47  44  90 NE3       29.93R

$$
NHZ002-005-011-211400-
_____NEW HAMPSHIRE_____


CITY           SKY/WX    TMP DP  RH WIND       PRES   REMARKS
LEBANON        LGT RAIN  46  41  82 CALM      29.98R
KEENE          PTSUNNY   46  37  71 N5        29.97S
MT WASHINGTON  FOG       28  28 100 S14         N/A  VSB 1/16WCI  17
PLYMOUTH       CLOUDY    42  42 100 CALM      30.02R
WHITEFIELD     CLOUDY    43  40  89 N5        29.99R

$$

_____REGIONAL QUEBEC LOCATIONS_____


CITY           SKY/WX    TMP DP  RH WIND       PRES   REMARKS
MONTREAL       LGT RAIN  43  37  81 NE14G20   30.01R
QUEBEC CITY    PTSUNNY   36  30  80 NE5       30.09
SHERBROOKE     LGT RAIN  41  39  93 NE6       30.02R

_____REGIONAL ONTARIO LOCATIONS_____


CITY           SKY/WX    TMP DP  RH WIND       PRES   REMARKS
OTTAWA         LGT RAIN  39  39 100 NE15      29.97R

______KEY______
VSB  - VISIBILITY IN MILES
WCI  - WIND CHILL INDEX
HX   - HEAT INDEX
$$



USA.gov is the U.S. government's official web portal to all federal, state and local government web resources and services.